[[{"header":{"parameterUnit":"m.s-1","parameterCategory":1,"la1":30.2992,"la2":30.254,"lo1":-89.0895,"lo2":-89.0443,"dy":0.0025,"dx":0.0025,"nx":19,"ny":19,"refTime":"2026-05-06T03:00:00:Z","depth":0,"parameterNumber":2,"parameterNumberName":"U-component_of_WINDS"},"data":[0,0,0,-0.7039,-0.7041,-0.7162,-0.7163,-0.7313,-0.7314,0,0,0,0,0,0,0,0,0,0,0,-0.6997,-0.6998,-0.7039,-0.7042,-0.7162,-0.7163,-0.7312,-0.7314,0,0,0,0,0,0,0,0,0,0,0,-0.6997,-0.6997,-0.6998,-0.7042,-0.7162,-0.7163,-0.7312,-0.7224,0,0,0,0,0,0,0,0,0,0,-0.7107,-0.7061,-0.6997,-0.6998,-0.7043,-0.7162,-0.7163,-0.7219,-0.7229,-0.7255,0,-0.7273,0,-0.7296,-0.7323,-0.7324,0,0,0,-0.7047,-0.7053,-0.7091,-0.6999,-0.7044,-0.7162,-0.7109,-0.7225,-0.7236,-0.7268,-0.7275,-0.7281,-0.7298,-0.7324,-0.7325,-0.7448,-0.7449,0,0,-0.7041,-0.7016,-0.7083,-0.7098,-0.7075,-0.7106,-0.7113,-0.7232,-0.724,-0.7276,-0.7285,-0.7301,-0.7325,-0.7326,-0.7448,-0.7448,0,0,0,-0.7018,-0.7011,-0.7046,-0.7091,-0.7113,-0.7109,-0.7118,-0.7234,-0.7248,-0.7286,-0.7302,-0.7326,-0.7328,-0.7448,-0.7448,-0.7439,0,0,0,-0.7014,-0.6998,-0.7043,-0.7029,-0.7111,-0.7175,-0.7118,-0.724,-0.7254,-0.7302,-0.7326,-0.7329,-0.7447,-0.7448,-0.7439,-0.744,0,0,0,-0.6991,-0.6995,-0.701,-0.7028,-0.7079,-0.7173,-0.7194,-0.7243,-0.7263,-0.7324,-0.7329,-0.7447,-0.7448,-0.7438,-0.7439,-0.7465,0,0,0,-0.6961,-0.7001,-0.701,-0.7061,-0.7077,-0.7166,-0.7193,-0.7261,-0.7312,-0.7327,-0.7447,-0.7448,-0.7438,-0.7439,-0.7465,-0.7483,-0.7488,0,0,-0.6999,-0.7005,-0.7038,-0.7048,-0.7128,-0.7149,-0.723,-0.7301,-0.7331,-0.7408,-0.7412,-0.7439,-0.7439,-0.7465,-0.7524,-0.7528,0,0,0,-0.7041,-0.7064,-0.7091,-0.7137,-0.7191,-0.7238,-0.7299,-0.7326,-0.7392,-0.7364,-0.7456,-0.7457,-0.7473,-0.7483,-0.7487,-0.7503,-0.7451,-0.7451,-0.7451,-0.706,-0.7094,-0.7151,-0.7199,-0.7244,-0.7307,-0.7347,-0.7395,-0.7417,-0.7438,-0.7462,-0.7493,-0.7504,-0.7506,-0.7523,-0.7474,-0.7474,-0.7474,-0.7474,-0.7119,-0.7158,-0.7186,-0.725,-0.7287,-0.7344,-0.7407,-0.7421,-0.7481,-0.7478,-0.7494,-0.7489,-0.7509,-0.7526,-0.7473,-0.7473,-0.7473,-0.7473,-0.7473,-0.7136,-0.716,-0.719,-0.7261,-0.7313,-0.7362,-0.7417,-0.745,-0.7481,-0.7497,-0.7526,-0.7526,-0.7532,-0.7508,-0.7508,-0.7508,-0.7508,-0.7509,-0.7509,-0.7141,-0.7176,-0.7217,-0.7277,-0.7312,-0.7362,-0.7426,-0.7462,-0.751,-0.753,-0.753,-0.7552,-0.7504,-0.7492,-0.7511,-0.751,-0.751,-0.751,-0.751,-0.719,-0.7184,-0.7247,-0.7282,-0.7357,-0.7406,-0.7446,-0.7517,-0.7552,-0.7579,-0.7597,-0.7556,-0.7566,-0.7564,-0.7554,-0.7588,-0.7588,-0.7588,-0.7588,-0.7205,-0.7212,-0.7285,-0.7338,-0.7393,-0.7436,-0.751,-0.7562,-0.7614,-0.7639,-0.7638,-0.7628,-0.7624,-0.7637,-0.7633,-0.7624,-0.7675,-0.7676,-0.7676,-0.7237,-0.7252,-0.7307,-0.7355,-0.7416,-0.7469,-0.7541,-0.7603,-0.7662,-0.768,-0.7659,-0.7655,-0.7639,-0.7631,-0.7649,-0.7642,-0.7627,0,0]},{"header":{"parameterUnit":"m.s-1","parameterCategory":1,"la1":30.2992,"la2":30.254,"lo1":-89.0895,"lo2":-89.0443,"dy":0.0025,"dx":0.0025,"nx":19,"ny":19,"refTime":"2026-05-06T03:00:00:Z","depth":0,"parameterNumber":3,"parameterNumberName":"V-component_of_WINDS"},"data":[0,0,0,4.8246,4.8247,4.8278,4.8278,4.8337,4.8338,0,0,0,0,0,0,0,0,0,0,0,4.8249,4.825,4.8246,4.8247,4.8278,4.8278,4.8337,4.8338,0,0,0,0,0,0,0,0,0,0,0,4.8249,4.825,4.8251,4.8247,4.8278,4.8278,4.8337,4.8306,0,0,0,0,0,0,0,0,0,0,4.8272,4.8288,4.8249,4.8251,4.8247,4.8278,4.8278,4.8304,4.8308,4.8331,0,4.8356,0,4.8348,4.8343,4.8343,0,0,0,4.8237,4.8285,4.8282,4.8251,4.8248,4.8278,4.8261,4.8306,4.831,4.8336,4.8357,4.8358,4.8349,4.8343,4.8344,4.8509,4.851,0,0,4.8236,4.8262,4.8279,4.8285,4.8283,4.826,4.8262,4.8308,4.8332,4.8357,4.8359,4.835,4.8344,4.8344,4.8508,4.851,0,0,0,4.8237,4.8261,4.8256,4.8284,4.8288,4.8261,4.8264,4.833,4.8326,4.836,4.835,4.8344,4.8345,4.8507,4.8509,4.8593,0,0,0,4.8235,4.8261,4.8256,4.8272,4.8287,4.831,4.8285,4.8323,4.8328,4.835,4.8344,4.8346,4.8505,4.8508,4.8588,4.8629,0,0,0,4.8243,4.8262,4.8271,4.8273,4.8288,4.8308,4.8307,4.8324,4.8323,4.8343,4.8346,4.8505,4.8507,4.8584,4.8622,4.8679,0,0,0,4.8258,4.8347,4.8273,4.8369,4.8288,4.8361,4.8306,4.836,4.8388,4.8345,4.8506,4.8509,4.8582,4.8617,4.8675,4.8733,4.8759,0,0,4.8385,4.8364,4.8418,4.8352,4.8445,4.8354,4.8459,4.846,4.8438,4.8487,4.849,4.859,4.8621,4.8678,4.8901,4.8923,0,0,0,4.8467,4.8506,4.8525,4.8552,4.8555,4.856,4.8542,4.8542,4.8581,4.8469,4.8626,4.8644,4.8676,4.8703,4.8721,4.8747,4.8522,4.8522,4.8521,4.8685,4.8651,4.8737,4.8707,4.8734,4.8713,4.8732,4.8728,4.8687,4.8725,4.8739,4.8878,4.891,4.8924,4.8951,4.8767,4.8768,4.8768,4.8768,4.8867,4.8916,4.8858,4.8921,4.8884,4.8936,4.8919,4.8887,4.893,4.8865,4.8892,4.8825,4.8948,4.897,4.8774,4.8773,4.8772,4.8772,4.8771,4.9006,4.9023,4.9021,4.9055,4.9085,4.905,4.9093,4.9058,4.9026,4.9053,4.9063,4.9061,4.9055,4.906,4.9061,4.9061,4.9061,4.9062,4.9062,4.9151,4.9145,4.9185,4.9193,4.9205,4.9216,4.9194,4.9204,4.9206,4.9178,4.9177,4.9132,4.8967,4.8926,4.9069,4.9068,4.9067,4.9067,4.9066,4.9348,4.9297,4.936,4.9371,4.9376,4.9407,4.9361,4.9384,4.9387,4.9409,4.9357,4.9241,4.9217,4.9202,4.9168,4.9365,4.9365,4.9365,4.9365,4.9465,4.9448,4.9503,4.9523,4.9538,4.9502,4.9572,4.9555,4.953,4.9529,4.9496,4.9447,4.9434,4.9417,4.9398,4.9365,4.9608,4.9609,4.9609,4.9583,4.9566,4.9633,4.9607,4.9607,4.9608,4.9672,4.9697,4.9657,4.9618,4.9528,4.9518,4.9439,4.9415,4.9375,4.9346,4.9285,0,0]}]]